SWA3188 KDAL-KLAS

Flight info

Callsign SWA3188
Flight time 2h 47m
Altitude 38000
Route KKITY5 BRHMA CNX ZUN HAHAA RKSTR4
Aircraft B737/M-SADE2E3GIJ4RWZ/LB1D1

Departure

Time 2026-05-04 13:06
Airport Dallas Love Field (KDAL)

Arrival

Time 2026-05-04 15:54
Airport Harry Reid International Airport (KLAS)
Time Latitude Longitude Altitude Speed Heading
2026-05-04 12:26 32.84618 -96.84752 490 ft 0 kts 296°
2026-05-04 12:54 32.84613 -96.84741 492 ft 4 kts 295°
2026-05-04 12:54 32.84604 -96.84715 490 ft 3 kts 286°
2026-05-04 12:55 32.84602 -96.84700 490 ft 2 kts 264°
2026-05-04 12:55 32.84604 -96.84686 494 ft 2 kts 239°
2026-05-04 12:55 32.84618 -96.84663 485 ft 4 kts 232°
2026-05-04 12:55 32.84623 -96.84649 492 ft 2 kts 317°
2026-05-04 12:56 32.84614 -96.84641 486 ft 2 kts 313°
2026-05-04 12:56 32.84611 -96.84637 490 ft 0 kts 316°
2026-05-04 13:01 32.84612 -96.84637 490 ft 1 kts 316°
2026-05-04 13:01 32.84632 -96.84661 485 ft 8 kts 316°
2026-05-04 13:01 32.84689 -96.84726 482 ft 14 kts 315°
2026-05-04 13:01 32.84752 -96.84830 486 ft 16 kts 301°
2026-05-04 13:02 32.84828 -96.84927 480 ft 17 kts 313°
2026-05-04 13:02 32.84848 -96.85055 491 ft 17 kts 270°
2026-05-04 13:02 32.84849 -96.85212 488 ft 20 kts 271°
2026-05-04 13:02 32.84834 -96.85301 488 ft 8 kts 221°
2026-05-04 13:03 32.84797 -96.85328 488 ft 7 kts 236°
2026-05-04 13:03 32.84790 -96.85408 487 ft 10 kts 270°
2026-05-04 13:03 32.84790 -96.85475 483 ft 9 kts 268°
2026-05-04 13:03 32.84775 -96.85580 483 ft 16 kts 257°
2026-05-04 13:04 32.84755 -96.85703 484 ft 14 kts 273°
2026-05-04 13:04 32.84819 -96.85801 480 ft 18 kts 316°
2026-05-04 13:04 32.84926 -96.85924 482 ft 24 kts 316°
2026-05-04 13:04 32.85048 -96.86066 473 ft 25 kts 315°
2026-05-04 13:05 32.85150 -96.86182 479 ft 16 kts 316°
2026-05-04 13:05 32.85188 -96.86251 479 ft 9 kts 264°
2026-05-04 13:05 32.85152 -96.86308 473 ft 9 kts 226°
2026-05-04 13:05 32.85093 -96.86294 484 ft 11 kts 136°
2026-05-04 13:06 32.84920 -96.86096 481 ft 69 kts 136°
2026-05-04 13:06 32.84408 -96.85503 481 ft 134 kts 136°
2026-05-04 13:06 32.83622 -96.84597 641 ft 173 kts 138°
2026-05-04 13:06 32.82726 -96.83561 1217 ft 187 kts 137°
2026-05-04 13:07 32.81807 -96.82445 2008 ft 189 kts 135°
2026-05-04 13:07 32.80923 -96.81286 2754 ft 195 kts 136°
2026-05-04 13:07 32.79953 -96.80051 3035 ft 218 kts 140°
2026-05-04 13:07 32.78858 -96.78692 3360 ft 242 kts 140°
2026-05-04 13:08 32.77635 -96.77178 3830 ft 259 kts 139°
2026-05-04 13:08 32.76394 -96.75618 4701 ft 263 kts 139°
2026-05-04 13:08 32.75102 -96.74031 5406 ft 269 kts 140°
2026-05-04 13:08 32.73745 -96.72470 6218 ft 274 kts 140°
2026-05-04 13:09 32.72288 -96.71005 7028 ft 275 kts 154°
2026-05-04 13:09 32.70457 -96.70407 7740 ft 273 kts 187°
2026-05-04 13:09 32.68630 -96.70937 8589 ft 274 kts 205°
2026-05-04 13:09 32.66880 -96.71882 9433 ft 277 kts 208°
2026-05-04 13:10 32.65131 -96.72883 10328 ft 281 kts 208°
2026-05-04 13:10 32.63345 -96.73992 10719 ft 301 kts 219°
2026-05-04 13:10 32.61938 -96.75902 10964 ft 320 kts 245°
2026-05-04 13:10 32.61407 -96.78519 11246 ft 338 kts 269°
2026-05-04 13:11 32.61429 -96.81391 11591 ft 355 kts 271°
2026-05-04 13:11 32.61465 -96.84343 12208 ft 363 kts 271°
2026-05-04 13:11 32.61497 -96.87313 12884 ft 367 kts 271°
2026-05-04 13:11 32.61526 -96.90358 13578 ft 371 kts 271°
2026-05-04 13:12 32.61548 -96.93430 14273 ft 374 kts 271°
2026-05-04 13:12 32.61565 -96.96528 14979 ft 377 kts 271°
2026-05-04 13:12 32.61578 -96.99688 15715 ft 379 kts 271°
2026-05-04 13:12 32.61588 -97.02776 16399 ft 381 kts 271°
2026-05-04 13:13 32.61597 -97.05934 17053 ft 384 kts 271°
2026-05-04 13:13 32.61605 -97.09113 17674 ft 386 kts 271°
2026-05-04 13:13 32.61612 -97.12310 18279 ft 389 kts 271°
2026-05-04 13:13 32.61618 -97.15528 18859 ft 391 kts 271°
2026-05-04 13:14 32.61624 -97.18763 19421 ft 394 kts 271°
2026-05-04 13:14 32.61629 -97.22032 19935 ft 397 kts 271°
2026-05-04 13:14 32.61633 -97.25309 20457 ft 399 kts 271°
2026-05-04 13:14 32.61637 -97.28613 20939 ft 401 kts 271°
2026-05-04 13:15 32.61708 -97.31930 21392 ft 403 kts 277°
2026-05-04 13:15 32.62377 -97.35154 21849 ft 404 kts 291°
2026-05-04 13:15 32.63544 -97.38195 22305 ft 406 kts 295°
2026-05-04 13:15 32.64793 -97.41209 22700 ft 409 kts 295°
2026-05-04 13:16 32.66060 -97.44239 23085 ft 411 kts 295°
2026-05-04 13:16 32.67324 -97.47289 23475 ft 413 kts 295°
2026-05-04 13:16 32.68581 -97.50362 23843 ft 414 kts 295°
2026-05-04 13:16 32.69834 -97.53456 24194 ft 416 kts 295°
2026-05-04 13:17 32.71067 -97.56519 24557 ft 417 kts 295°
2026-05-04 13:17 32.72315 -97.59628 24937 ft 417 kts 295°
2026-05-04 13:17 32.73564 -97.62746 25294 ft 418 kts 295°
2026-05-04 13:17 32.74813 -97.65866 25625 ft 419 kts 295°
2026-05-04 13:18 32.76065 -97.68994 26001 ft 419 kts 295°
2026-05-04 13:18 32.77315 -97.72118 26344 ft 419 kts 294°
2026-05-04 13:18 32.78414 -97.75320 26628 ft 420 kts 288°
2026-05-04 13:18 32.79226 -97.78657 26907 ft 421 kts 285°
2026-05-04 13:19 32.79973 -97.82019 27175 ft 421 kts 285°
2026-05-04 13:19 32.80711 -97.85394 27430 ft 422 kts 285°
2026-05-04 13:19 32.81461 -97.88766 27675 ft 422 kts 285°
2026-05-04 13:19 32.82223 -97.92125 27984 ft 420 kts 285°
2026-05-04 13:20 32.82992 -97.95463 28347 ft 417 kts 285°
2026-05-04 13:20 32.83762 -97.98785 28722 ft 415 kts 285°
2026-05-04 13:20 32.84528 -98.02076 29144 ft 411 kts 286°
2026-05-04 13:20 32.85287 -98.05339 29568 ft 407 kts 286°
2026-05-04 13:21 32.86039 -98.08574 30039 ft 404 kts 286°
2026-05-04 13:21 32.86784 -98.11785 30441 ft 402 kts 286°
2026-05-04 13:21 32.87524 -98.14978 30863 ft 399 kts 286°
2026-05-04 13:21 32.88255 -98.18143 31301 ft 395 kts 286°
2026-05-04 13:22 32.88979 -98.21275 31751 ft 391 kts 287°
2026-05-04 13:22 32.89696 -98.24382 32191 ft 388 kts 287°
2026-05-04 13:22 32.90406 -98.27461 32633 ft 384 kts 287°
2026-05-04 13:22 32.91111 -98.30519 33044 ft 381 kts 287°
2026-05-04 13:23 32.91810 -98.33553 33418 ft 378 kts 287°
2026-05-04 13:23 32.92503 -98.36559 33832 ft 374 kts 287°
2026-05-04 13:23 32.93176 -98.39490 34255 ft 370 kts 287°
2026-05-04 13:23 32.93851 -98.42428 34627 ft 367 kts 287°
2026-05-04 13:24 32.94522 -98.45351 34919 ft 365 kts 288°
2026-05-04 13:24 32.95190 -98.48265 35158 ft 365 kts 288°
2026-05-04 13:24 32.95857 -98.51176 35404 ft 364 kts 288°
2026-05-04 13:25 32.97180 -98.56966 35944 ft 360 kts 288°
2026-05-04 13:25 32.97834 -98.59838 36214 ft 358 kts 288°
2026-05-04 13:25 32.98487 -98.62705 36456 ft 357 kts 288°
2026-05-04 13:25 32.99135 -98.65555 36652 ft 356 kts 288°
2026-05-04 13:26 32.99778 -98.68391 36988 ft 352 kts 288°
2026-05-04 13:26 33.00411 -98.71181 37367 ft 347 kts 288°
2026-05-04 13:26 33.01034 -98.73935 37729 ft 342 kts 288°
2026-05-04 13:26 33.01651 -98.76659 37937 ft 341 kts 288°
2026-05-04 13:27 33.02896 -98.82152 37934 ft 343 kts 288°
2026-05-04 13:27 33.04129 -98.87612 37947 ft 340 kts 288°
2026-05-04 13:28 33.05345 -98.93012 37952 ft 339 kts 288°
2026-05-04 13:28 33.06562 -98.98433 37939 ft 338 kts 288°
2026-05-04 13:29 33.07774 -99.03845 37951 ft 337 kts 288°
2026-05-04 13:29 33.08984 -99.09256 37939 ft 338 kts 288°
2026-05-04 13:30 33.10194 -99.14676 37948 ft 338 kts 288°
2026-05-04 13:30 33.11402 -99.20105 37946 ft 339 kts 288°
2026-05-04 13:31 33.12608 -99.25536 37948 ft 339 kts 288°
2026-05-04 13:31 33.13813 -99.30977 37948 ft 339 kts 288°
2026-05-04 13:32 33.15018 -99.36417 37938 ft 339 kts 288°
2026-05-04 13:32 33.16221 -99.41873 37936 ft 340 kts 288°
2026-05-04 13:33 33.17414 -99.47293 37936 ft 340 kts 288°
2026-05-04 13:33 33.18614 -99.52751 37933 ft 339 kts 288°
2026-05-04 13:34 33.19807 -99.58196 37936 ft 339 kts 288°
2026-05-04 13:34 33.21019 -99.63630 37934 ft 338 kts 288°
2026-05-04 13:35 33.22870 -99.71754 37931 ft 337 kts 288°
2026-05-04 13:36 33.24098 -99.77166 37917 ft 337 kts 288°
2026-05-04 13:36 33.25320 -99.82573 37919 ft 337 kts 288°
2026-05-04 13:37 33.26529 -99.87934 37918 ft 337 kts 288°
2026-05-04 13:37 33.27745 -99.93340 37917 ft 337 kts 288°
2026-05-04 13:38 33.28957 -99.98749 37917 ft 337 kts 288°
2026-05-04 13:38 33.30168 -100.04162 37919 ft 337 kts 287°
2026-05-04 13:39 33.31378 -100.09579 37919 ft 337 kts 287°
2026-05-04 13:39 33.32384 -100.14082 37915 ft 337 kts 287°
2026-05-04 13:40 33.33589 -100.19494 37920 ft 337 kts 287°
2026-05-04 13:40 33.34790 -100.24911 37927 ft 337 kts 287°
2026-05-04 13:41 33.35989 -100.30332 37929 ft 337 kts 287°
2026-05-04 13:41 33.37187 -100.35749 37926 ft 337 kts 287°
2026-05-04 13:42 33.38982 -100.43891 37930 ft 338 kts 287°
2026-05-04 13:42 33.40176 -100.49326 37934 ft 337 kts 287°
2026-05-04 13:43 33.41365 -100.54757 37944 ft 337 kts 287°
2026-05-04 13:43 33.42553 -100.60189 37944 ft 338 kts 287°
2026-05-04 13:44 33.43741 -100.65633 37945 ft 338 kts 287°
2026-05-04 13:44 33.44928 -100.71082 37948 ft 338 kts 287°
2026-05-04 13:45 33.46111 -100.76530 37945 ft 338 kts 287°
2026-05-04 13:45 33.47294 -100.81988 37941 ft 339 kts 287°
2026-05-04 13:46 33.48476 -100.87459 37945 ft 339 kts 287°
2026-05-04 13:46 33.49659 -100.92941 37950 ft 340 kts 287°
2026-05-04 13:47 33.50842 -100.98437 37943 ft 340 kts 287°
2026-05-04 13:47 33.52023 -101.03937 37942 ft 341 kts 287°
2026-05-04 13:48 33.53156 -101.09426 37946 ft 342 kts 286°
2026-05-04 13:48 33.54272 -101.14967 37948 ft 342 kts 286°
2026-05-04 13:49 33.55386 -101.20507 37944 ft 342 kts 286°
2026-05-04 13:49 33.56498 -101.26042 37945 ft 342 kts 286°
2026-05-04 13:50 33.57604 -101.31547 37944 ft 342 kts 286°
2026-05-04 13:50 33.58717 -101.37096 37947 ft 342 kts 285°
2026-05-04 13:51 33.59824 -101.42636 37946 ft 342 kts 285°
2026-05-04 13:51 33.60934 -101.48197 37944 ft 343 kts 285°
2026-05-04 13:52 33.62592 -101.56541 37945 ft 342 kts 285°
2026-05-04 13:53 33.63693 -101.62095 37943 ft 342 kts 285°
2026-05-04 13:53 33.64792 -101.67648 37942 ft 342 kts 285°
2026-05-04 13:54 33.66425 -101.75933 37946 ft 341 kts 285°
2026-05-04 13:55 33.68060 -101.84256 37942 ft 341 kts 285°
2026-05-04 13:55 33.69690 -101.92587 37949 ft 342 kts 285°
2026-05-04 13:56 33.70772 -101.98138 37941 ft 342 kts 285°
2026-05-04 13:57 33.72392 -102.06477 37951 ft 341 kts 285°
2026-05-04 13:58 33.74537 -102.17559 37957 ft 342 kts 285°
2026-05-04 13:58 33.76146 -102.25910 37954 ft 342 kts 285°
2026-05-04 13:59 33.77216 -102.31483 37970 ft 342 kts 285°
2026-05-04 14:00 33.78816 -102.39848 37968 ft 342 kts 285°
2026-05-04 14:00 33.80414 -102.48226 37979 ft 343 kts 285°
2026-05-04 14:01 33.81482 -102.53835 37978 ft 344 kts 285°
2026-05-04 14:02 33.83075 -102.62248 37973 ft 344 kts 284°
2026-05-04 14:02 33.84133 -102.67857 37969 ft 344 kts 284°
2026-05-04 14:03 33.85191 -102.73478 37973 ft 345 kts 284°
2026-05-04 14:03 33.86249 -102.79110 37979 ft 345 kts 284°
2026-05-04 14:04 33.87825 -102.87529 37979 ft 346 kts 284°
2026-05-04 14:04 33.88877 -102.93176 37981 ft 346 kts 284°
2026-05-04 14:05 33.90454 -103.01655 37980 ft 346 kts 284°
2026-05-04 14:06 33.91503 -103.07316 37984 ft 347 kts 284°
2026-05-04 14:06 33.92550 -103.12982 37967 ft 347 kts 284°
2026-05-04 14:07 33.93594 -103.18649 37959 ft 347 kts 284°
2026-05-04 14:07 33.94637 -103.24320 37975 ft 347 kts 284°
2026-05-04 14:08 33.95676 -103.29988 37964 ft 347 kts 283°
2026-05-04 14:08 33.96713 -103.35662 37964 ft 347 kts 283°
2026-05-04 14:09 33.98255 -103.44132 37958 ft 346 kts 283°
2026-05-04 14:10 33.99795 -103.52626 37960 ft 346 kts 283°
2026-05-04 14:10 34.00821 -103.58298 37965 ft 346 kts 283°
2026-05-04 14:11 34.01843 -103.63968 37955 ft 346 kts 283°
2026-05-04 14:11 34.03368 -103.72456 37961 ft 345 kts 283°
2026-05-04 14:12 34.04378 -103.78104 37953 ft 345 kts 283°
2026-05-04 14:13 34.05891 -103.86585 37960 ft 345 kts 283°
2026-05-04 14:13 34.06897 -103.92244 37968 ft 346 kts 283°
2026-05-04 14:14 34.07897 -103.97890 37970 ft 346 kts 283°
2026-05-04 14:14 34.09404 -104.06411 37975 ft 346 kts 283°
2026-05-04 14:15 34.11401 -104.17774 37978 ft 346 kts 283°
2026-05-04 14:16 34.12889 -104.26287 37986 ft 345 kts 282°
2026-05-04 14:17 34.14363 -104.34753 37981 ft 345 kts 282°
2026-05-04 14:18 34.15838 -104.43260 37982 ft 345 kts 282°
2026-05-04 14:19 34.17797 -104.54611 38017 ft 345 kts 282°
2026-05-04 14:19 34.18771 -104.60282 38016 ft 345 kts 282°
2026-05-04 14:20 34.19741 -104.65950 38021 ft 344 kts 282°
2026-05-04 14:20 34.20708 -104.71618 38043 ft 344 kts 282°
2026-05-04 14:21 34.22155 -104.80118 38054 ft 345 kts 282°
2026-05-04 14:21 34.23112 -104.85767 38058 ft 345 kts 282°
2026-05-04 14:22 34.24074 -104.91457 38061 ft 346 kts 282°
2026-05-04 14:22 34.25033 -104.97153 38070 ft 346 kts 282°
2026-05-04 14:23 34.26469 -105.05709 38067 ft 346 kts 281°
2026-05-04 14:24 34.27424 -105.11420 38075 ft 347 kts 281°
2026-05-04 14:24 34.28378 -105.17143 38081 ft 347 kts 281°
2026-05-04 14:25 34.29333 -105.22872 38072 ft 348 kts 281°
2026-05-04 14:25 34.30600 -105.30523 38086 ft 349 kts 281°
2026-05-04 14:26 34.31548 -105.36276 38082 ft 349 kts 281°
2026-05-04 14:26 34.32498 -105.42046 38088 ft 350 kts 281°
2026-05-04 14:27 34.33448 -105.47831 38088 ft 351 kts 281°
2026-05-04 14:27 34.34395 -105.53625 38094 ft 351 kts 281°
2026-05-04 14:28 34.35341 -105.59429 38102 ft 352 kts 281°
2026-05-04 14:28 34.36280 -105.65207 38110 ft 352 kts 281°
2026-05-04 14:29 34.38361 -105.76814 38128 ft 353 kts 282°
2026-05-04 14:30 34.39461 -105.82620 38128 ft 354 kts 282°
2026-05-04 14:31 34.41092 -105.91337 38122 ft 354 kts 282°
2026-05-04 14:32 34.43251 -106.02978 38121 ft 354 kts 282°
2026-05-04 14:32 34.44318 -106.08766 38111 ft 354 kts 282°
2026-05-04 14:33 34.45395 -106.14628 38114 ft 354 kts 282°
2026-05-04 14:33 34.46459 -106.20424 38110 ft 354 kts 282°
2026-05-04 14:34 34.47525 -106.26257 38104 ft 354 kts 282°
2026-05-04 14:34 34.48586 -106.32082 38099 ft 353 kts 282°
2026-05-04 14:35 34.49642 -106.37890 38102 ft 352 kts 281°
2026-05-04 14:35 34.50689 -106.43677 38102 ft 351 kts 281°
2026-05-04 14:36 34.51734 -106.49456 38105 ft 351 kts 281°
2026-05-04 14:36 34.52776 -106.55236 38099 ft 351 kts 281°
2026-05-04 14:37 34.53816 -106.60978 38089 ft 351 kts 281°
2026-05-04 14:37 34.54855 -106.66755 38090 ft 350 kts 281°
2026-05-04 14:38 34.55880 -106.72527 38093 ft 350 kts 281°
2026-05-04 14:38 34.56903 -106.78290 38091 ft 350 kts 281°
2026-05-04 14:39 34.57925 -106.84052 38090 ft 349 kts 281°
2026-05-04 14:39 34.58945 -106.89811 38090 ft 348 kts 281°
2026-05-04 14:40 34.60465 -106.98421 38091 ft 347 kts 281°
2026-05-04 14:40 34.61474 -107.04155 38091 ft 347 kts 281°
2026-05-04 14:41 34.62479 -107.09895 38091 ft 347 kts 281°
2026-05-04 14:42 34.64474 -107.21323 38092 ft 347 kts 280°
2026-05-04 14:42 34.65469 -107.27049 38093 ft 346 kts 280°
2026-05-04 14:43 34.66461 -107.32773 38109 ft 347 kts 280°
2026-05-04 14:43 34.67453 -107.38513 38108 ft 347 kts 280°
2026-05-04 14:44 34.68441 -107.44254 38116 ft 347 kts 280°
2026-05-04 14:44 34.69428 -107.49992 38120 ft 347 kts 280°
2026-05-04 14:45 34.70408 -107.55728 38123 ft 346 kts 280°
2026-05-04 14:45 34.71381 -107.61429 38127 ft 346 kts 280°
2026-05-04 14:46 34.72358 -107.67160 38127 ft 346 kts 280°
2026-05-04 14:46 34.73333 -107.72900 38129 ft 346 kts 280°
2026-05-04 14:47 34.74303 -107.78634 38132 ft 346 kts 280°
2026-05-04 14:47 34.75271 -107.84371 38141 ft 346 kts 280°
2026-05-04 14:48 34.76237 -107.90114 38138 ft 346 kts 280°
2026-05-04 14:48 34.77202 -107.95862 38145 ft 347 kts 280°
2026-05-04 14:49 34.78164 -108.01620 38150 ft 347 kts 280°
2026-05-04 14:49 34.79122 -108.07369 38148 ft 346 kts 279°
2026-05-04 14:50 34.80070 -108.13074 38152 ft 346 kts 279°
2026-05-04 14:50 34.81021 -108.18816 38146 ft 346 kts 279°
2026-05-04 14:51 34.81970 -108.24560 38134 ft 346 kts 279°
2026-05-04 14:51 34.82915 -108.30306 38134 ft 346 kts 279°
2026-05-04 14:52 34.83858 -108.36051 38144 ft 346 kts 279°
2026-05-04 14:52 34.84798 -108.41795 38133 ft 346 kts 279°
2026-05-04 14:53 34.85734 -108.47532 38141 ft 345 kts 279°
2026-05-04 14:53 34.86666 -108.53262 38147 ft 344 kts 279°
2026-05-04 14:54 34.87594 -108.58993 38132 ft 345 kts 279°
2026-05-04 14:54 34.88515 -108.64687 38135 ft 345 kts 279°
2026-05-04 14:55 34.89440 -108.70427 38132 ft 345 kts 279°
2026-05-04 14:55 34.90360 -108.76155 38148 ft 344 kts 278°
2026-05-04 14:56 34.91277 -108.81884 38145 ft 345 kts 278°
2026-05-04 14:56 34.92193 -108.87627 38140 ft 345 kts 278°
2026-05-04 14:57 34.93106 -108.93365 38146 ft 345 kts 278°
2026-05-04 14:57 34.94017 -108.99109 38158 ft 345 kts 278°
2026-05-04 14:58 34.94919 -109.04817 38142 ft 345 kts 278°
2026-05-04 14:58 34.95824 -109.10559 38139 ft 345 kts 278°
2026-05-04 14:59 34.96730 -109.16295 38145 ft 344 kts 279°
2026-05-04 15:00 34.98362 -109.24849 38133 ft 346 kts 280°
2026-05-04 15:00 34.99482 -109.30549 38130 ft 346 kts 280°
2026-05-04 15:01 35.01136 -109.39112 38125 ft 346 kts 280°
2026-05-04 15:01 35.02230 -109.44826 38127 ft 346 kts 280°
2026-05-04 15:02 35.03320 -109.50556 38117 ft 347 kts 279°
2026-05-04 15:02 35.04407 -109.56282 38121 ft 346 kts 279°
2026-05-04 15:03 35.05492 -109.62010 38130 ft 346 kts 279°
2026-05-04 15:03 35.06574 -109.67746 38126 ft 346 kts 279°
2026-05-04 15:04 35.07650 -109.73474 38122 ft 346 kts 279°
2026-05-04 15:04 35.08728 -109.79207 38123 ft 346 kts 279°
2026-05-04 15:05 35.09802 -109.84936 38120 ft 346 kts 279°
2026-05-04 15:05 35.10865 -109.90631 38121 ft 346 kts 279°
2026-05-04 15:06 35.11932 -109.96362 38118 ft 346 kts 279°
2026-05-04 15:07 35.13525 -110.04953 38124 ft 345 kts 278°
2026-05-04 15:07 35.14585 -110.10688 38114 ft 346 kts 278°
2026-05-04 15:08 35.15642 -110.16422 38106 ft 346 kts 278°
2026-05-04 15:08 35.16697 -110.22157 38101 ft 346 kts 278°
2026-05-04 15:09 35.17752 -110.27904 38095 ft 346 kts 278°
2026-05-04 15:09 35.18794 -110.33606 38097 ft 346 kts 278°
2026-05-04 15:10 35.20365 -110.42234 38094 ft 346 kts 278°
2026-05-04 15:11 35.21932 -110.50870 38090 ft 347 kts 278°
2026-05-04 15:11 35.22974 -110.56636 38085 ft 347 kts 278°
2026-05-04 15:12 35.24013 -110.62405 38087 ft 347 kts 278°
2026-05-04 15:12 35.25052 -110.68182 38080 ft 347 kts 278°
2026-05-04 15:13 35.25911 -110.72974 38087 ft 347 kts 278°
2026-05-04 15:13 35.26942 -110.78743 38081 ft 347 kts 278°
2026-05-04 15:14 35.27971 -110.84516 38090 ft 347 kts 278°
2026-05-04 15:14 35.28997 -110.90293 38094 ft 347 kts 278°
2026-05-04 15:15 35.30020 -110.96068 38096 ft 347 kts 278°
2026-05-04 15:15 35.31040 -111.01839 38089 ft 347 kts 277°
2026-05-04 15:16 35.32562 -111.10494 38097 ft 347 kts 277°
2026-05-04 15:17 35.34078 -111.19141 38101 ft 346 kts 277°
2026-05-04 15:17 35.35579 -111.27747 38097 ft 346 kts 277°
2026-05-04 15:18 35.36581 -111.33510 38103 ft 345 kts 277°
2026-05-04 15:19 35.38076 -111.42139 38107 ft 345 kts 277°
2026-05-04 15:19 35.39560 -111.50755 38114 ft 344 kts 277°
2026-05-04 15:20 35.40054 -111.53637 37636 ft 347 kts 277°
2026-05-04 15:20 35.40548 -111.56509 37068 ft 343 kts 277°
2026-05-04 15:20 35.41036 -111.59353 36437 ft 341 kts 276°
2026-05-04 15:20 35.41522 -111.62191 35722 ft 340 kts 276°
2026-05-04 15:21 35.42008 -111.65037 34920 ft 342 kts 276°
2026-05-04 15:21 35.42497 -111.67904 34101 ft 345 kts 275°
2026-05-04 15:21 35.43496 -111.73809 32641 ft 367 kts 275°
2026-05-04 15:22 35.44014 -111.76865 31987 ft 370 kts 276°
2026-05-04 15:22 35.44541 -111.79942 31344 ft 366 kts 275°
2026-05-04 15:22 35.45569 -111.85986 30329 ft 359 kts 275°
2026-05-04 15:23 35.46017 -111.88985 30198 ft 353 kts 273°
2026-05-04 15:23 35.46393 -111.91934 30139 ft 351 kts 272°
2026-05-04 15:23 35.46748 -111.94854 30090 ft 339 kts 272°
2026-05-04 15:23 35.47092 -111.97648 30080 ft 323 kts 271°
2026-05-04 15:24 35.47738 -112.02895 30040 ft 307 kts 271°
2026-05-04 15:24 35.48371 -112.08199 28499 ft 325 kts 271°
2026-05-04 15:25 35.49032 -112.13715 28384 ft 347 kts 274°
2026-05-04 15:25 35.49439 -112.16686 28229 ft 357 kts 273°
2026-05-04 15:26 35.50174 -112.22727 27857 ft 359 kts 273°
2026-05-04 15:26 35.50523 -112.25764 27663 ft 361 kts 275°
2026-05-04 15:26 35.51313 -112.31840 27284 ft 358 kts 274°
2026-05-04 15:27 35.51686 -112.34859 27096 ft 357 kts 274°
2026-05-04 15:27 35.52421 -112.40877 26728 ft 356 kts 274°
2026-05-04 15:28 35.53166 -112.47061 26369 ft 381 kts 274°
2026-05-04 15:28 35.53559 -112.50328 26173 ft 391 kts 275°
2026-05-04 15:28 35.54351 -112.56832 25753 ft 389 kts 275°
2026-05-04 15:29 35.54751 -112.60134 25547 ft 392 kts 275°
2026-05-04 15:30 35.56336 -112.73292 24727 ft 388 kts 275°
2026-05-04 15:30 35.57503 -112.83090 24126 ft 388 kts 275°
2026-05-04 15:31 35.58275 -112.89648 23719 ft 387 kts 275°
2026-05-04 15:31 35.58666 -112.92942 23521 ft 390 kts 275°
2026-05-04 15:32 35.59821 -113.02789 22901 ft 386 kts 275°
2026-05-04 15:32 35.60580 -113.09289 22496 ft 383 kts 275°
2026-05-04 15:33 35.61331 -113.15751 22096 ft 381 kts 275°
2026-05-04 15:34 35.62435 -113.25362 21505 ft 380 kts 274°
2026-05-04 15:34 35.62811 -113.28587 21296 ft 380 kts 274°
2026-05-04 15:34 35.63547 -113.35017 20900 ft 379 kts 274°
2026-05-04 15:35 35.64273 -113.41420 20497 ft 377 kts 274°
2026-05-04 15:35 35.64636 -113.44605 20312 ft 376 kts 274°
2026-05-04 15:35 35.64995 -113.47791 20114 ft 376 kts 274°
2026-05-04 15:36 35.65876 -113.54139 19569 ft 379 kts 277°
2026-05-04 15:36 35.66406 -113.57310 19270 ft 378 kts 278°
2026-05-04 15:36 35.66943 -113.60452 18966 ft 375 kts 277°
2026-05-04 15:37 35.67474 -113.63591 18684 ft 375 kts 277°
2026-05-04 15:37 35.68007 -113.66730 18401 ft 375 kts 277°
2026-05-04 15:37 35.68526 -113.69871 18099 ft 374 kts 277°
2026-05-04 15:37 35.69038 -113.73002 17815 ft 373 kts 277°
2026-05-04 15:38 35.69545 -113.76123 17605 ft 371 kts 277°
2026-05-04 15:38 35.70051 -113.79235 17330 ft 371 kts 277°
2026-05-04 15:38 35.70555 -113.82346 17049 ft 371 kts 277°
2026-05-04 15:38 35.71059 -113.85456 16771 ft 370 kts 277°
2026-05-04 15:39 35.71560 -113.88562 16501 ft 370 kts 277°
2026-05-04 15:39 35.72062 -113.91669 16213 ft 370 kts 277°
2026-05-04 15:39 35.73055 -113.97838 15638 ft 369 kts 277°
2026-05-04 15:40 35.73552 -114.00933 15351 ft 368 kts 277°
2026-05-04 15:40 35.74047 -114.04018 15061 ft 367 kts 277°
2026-05-04 15:40 35.74540 -114.07102 14774 ft 366 kts 277°
2026-05-04 15:40 35.75027 -114.10144 14480 ft 356 kts 277°
2026-05-04 15:41 35.75497 -114.13072 14202 ft 341 kts 277°
2026-05-04 15:41 35.76059 -114.15855 13928 ft 332 kts 288°
2026-05-04 15:41 35.77100 -114.18352 13700 ft 323 kts 294°
2026-05-04 15:41 35.78188 -114.20726 13441 ft 313 kts 294°
2026-05-04 15:42 35.79235 -114.23015 13213 ft 302 kts 294°
2026-05-04 15:42 35.80247 -114.25257 12987 ft 297 kts 293°
2026-05-04 15:42 35.81237 -114.27488 12747 ft 297 kts 293°
2026-05-04 15:42 35.82222 -114.29721 12541 ft 297 kts 293°
2026-05-04 15:43 35.83210 -114.31962 12326 ft 298 kts 293°
2026-05-04 15:43 35.84244 -114.34193 12102 ft 304 kts 299°
2026-05-04 15:43 35.85516 -114.36306 11846 ft 308 kts 303°
2026-05-04 15:43 35.86853 -114.38380 11598 ft 309 kts 304°
2026-05-04 15:44 35.88190 -114.40451 11348 ft 308 kts 304°
2026-05-04 15:44 35.89510 -114.42515 11122 ft 305 kts 304°
2026-05-04 15:44 35.90804 -114.44561 10886 ft 301 kts 303°
2026-05-04 15:44 35.92085 -114.46603 10650 ft 300 kts 303°
2026-05-04 15:45 35.93355 -114.48640 10430 ft 299 kts 304°
2026-05-04 15:45 35.94619 -114.50669 10199 ft 298 kts 304°
2026-05-04 15:45 35.95871 -114.52681 9970 ft 298 kts 304°
2026-05-04 15:45 35.97125 -114.54715 9763 ft 298 kts 304°
2026-05-04 15:46 35.98379 -114.56751 9563 ft 297 kts 304°
2026-05-04 15:46 35.99628 -114.58780 9346 ft 297 kts 304°
2026-05-04 15:46 36.00878 -114.60813 9124 ft 297 kts 304°
2026-05-04 15:46 36.02128 -114.62843 8920 ft 296 kts 305°
2026-05-04 15:47 36.03378 -114.64870 8724 ft 296 kts 305°
2026-05-04 15:47 36.04550 -114.66921 8513 ft 289 kts 299°
2026-05-04 15:47 36.05574 -114.69035 8313 ft 284 kts 298°
2026-05-04 15:47 36.06572 -114.71124 8114 ft 281 kts 298°
2026-05-04 15:48 36.07296 -114.73308 7882 ft 278 kts 276°
2026-05-04 15:48 36.07385 -114.75687 7570 ft 280 kts 267°
2026-05-04 15:48 36.07384 -114.80475 6906 ft 275 kts 268°
2026-05-04 15:49 36.07386 -114.82832 6569 ft 273 kts 268°
2026-05-04 15:49 36.07409 -114.85140 6342 ft 262 kts 268°
2026-05-04 15:49 36.07423 -114.87350 6012 ft 252 kts 267°
2026-05-04 15:49 36.07420 -114.89463 5700 ft 240 kts 267°
2026-05-04 15:50 36.07412 -114.91479 5386 ft 230 kts 267°
2026-05-04 15:50 36.07404 -114.93433 5080 ft 225 kts 267°
2026-05-04 15:50 36.07400 -114.95341 4776 ft 221 kts 267°
2026-05-04 15:50 36.07394 -114.97203 4494 ft 212 kts 267°
2026-05-04 15:51 36.07390 -114.98994 4223 ft 205 kts 267°
2026-05-04 15:51 36.07386 -115.00716 3949 ft 195 kts 267°
2026-05-04 15:51 36.07383 -115.02331 3727 ft 181 kts 266°
2026-05-04 15:51 36.07381 -115.03805 3473 ft 163 kts 267°
2026-05-04 15:52 36.07379 -115.05133 3268 ft 148 kts 266°
2026-05-04 15:52 36.07375 -115.06379 3066 ft 142 kts 265°
2026-05-04 15:52 36.07372 -115.07596 2909 ft 143 kts 265°
2026-05-04 15:52 36.07368 -115.08847 2691 ft 149 kts 265°
2026-05-04 15:53 36.07365 -115.10121 2514 ft 148 kts 266°
2026-05-04 15:53 36.07362 -115.11386 2311 ft 146 kts 267°
2026-05-04 15:53 36.07367 -115.12634 2109 ft 144 kts 266°
2026-05-04 15:53 36.07362 -115.13785 2077 ft 115 kts 271°
2026-05-04 15:54 36.07361 -115.14508 2090 ft 55 kts 269°
2026-05-04 15:54 36.07389 -115.14840 2094 ft 26 kts 287°
2026-05-04 15:54 36.07443 -115.14991 2097 ft 12 kts 298°
2026-05-04 15:54 36.07474 -115.15054 2098 ft 8 kts 304°
2026-05-04 15:55 36.07507 -115.15104 2100 ft 8 kts 316°
2026-05-04 15:55 36.07555 -115.15148 2104 ft 8 kts 329°
2026-05-04 15:55 36.07609 -115.15178 2108 ft 11 kts 335°
2026-05-04 15:55 36.07689 -115.15225 2108 ft 13 kts 335°
2026-05-04 15:56 36.07773 -115.15273 2102 ft 13 kts 335°
2026-05-04 15:56 36.07857 -115.15297 2099 ft 13 kts 26°
2026-05-04 15:56 36.07877 -115.15201 2098 ft 12 kts 90°
2026-05-04 15:56 36.07877 -115.15101 2097 ft 11 kts 90°
2026-05-04 15:57 36.07871 -115.15006 2097 ft 13 kts 95°
2026-05-04 15:57 36.07863 -115.14874 2097 ft 14 kts 95°
2026-05-04 15:57 36.07859 -115.14773 2096 ft 11 kts 78°
2026-05-04 15:57 36.07919 -115.14745 2096 ft 9 kts 341°
2026-05-04 15:58 36.07975 -115.14776 2096 ft 10 kts 335°
2026-05-04 15:58 36.08049 -115.14818 2096 ft 10 kts 338°
2026-05-04 15:58 36.08085 -115.14801 2096 ft 5 kts 53°
2026-05-04 15:58 36.08100 -115.14773 2096 ft 2 kts 56°
2026-05-04 15:59 36.08104 -115.14766 2096 ft 0 kts 56°